Home > Weather > Pematangsiantar > Past weeks

Flag for Indonesia Weather for the Past 2 Weeks in Pematangsiantar, Sumatera, Indonesia

Now
90 °F

Scattered clouds.


Feels Like: 105 °F
Forecast: 73 / 86 °F
Wind: 8 mph from North

Location: Medan / Polonia

Current Time: Apr 29, 2016 at 12:16:14 PM

Latest Report: Apr 29, 2016 at 11:00 AM


Visibility: N/A

Pressure: 29.83 "Hg

Humidity: 71%

Dew Point: 79 °F

Location of PematangsiantarLocation

Historic Weather in Pematangsiantar — Graph

°F

Pematangsiantar Temperature Yesterday

Maximum temperature yesterday: 93 °F (at 2:00 PM)
Minimum temperature yesterday: 77 °F (at 6:00 AM)
Average temperature yesterday: 85 °F

High & Low Weather Summary for the Past Weeks

 TemperatureHumidityPressure
High99 °F (Apr 22, 12:00 PM)100% (Apr 16, 5:00 AM)29.89 "Hg (Apr 16, 5:00 AM)
Low75 °F (Apr 15, 3:30 AM)50% (Apr 22, 1:00 PM)29.68 "Hg (Apr 23, 4:00 PM)
Average84 °F82%29.79 "Hg
* Reported Apr 14 11:00 AM — Apr 29 11:00 AM, Pematangsiantar, Weather by CustomWeather, © 2016

Note: Actual official high and low records may vary slightly from our data, if they occured in-between our weather recording intervals... More about our weather records

Advertising

Pematangsiantar Weather History for the Previous 24 Hours

Scroll right to see more
 ConditionsComfort  
Time TempWeatherWind HumidityBarometerVisibility
11:00 AM
Fri, Apr 29
90 °FScattered clouds.8 mph71%29.83 "HgN/A
10:00 AM90 °FScattered clouds.6 mph75%29.83 "HgN/A
9:30 AM90 °FScattered clouds.7 mph75%29.83 "HgN/A
9:00 AM88 °FScattered clouds.7 mph79%29.83 "Hg5 mi
8:30 AM88 °FScattered clouds.3 mph79%29.83 "Hg4 mi
8:00 AM86 °FScattered clouds.3 mph84%29.83 "Hg4 mi
7:00 AM81 °FScattered clouds.3 mph94%29.80 "Hg4 mi
6:30 AM81 °FScattered clouds.3 mph94%29.80 "Hg4 mi
6:00 AM81 °FThunderstorms. Passing clouds.No wind89%29.77 "Hg4 mi
5:00 AM81 °FFog.3 mph94%29.77 "Hg2 mi
4:00 AM81 °FFog.3 mph94%29.74 "Hg2 mi
3:30 AM81 °FFog.5 mph94%29.74 "Hg2 mi
3:00 AM82 °FFog.6 mph89%29.74 "Hg2 mi
2:30 AM82 °FFog.6 mph89%29.77 "Hg2 mi
2:00 AM82 °FFog.3 mph89%29.77 "Hg2 mi
1:30 AM82 °FFog.3 mph89%29.77 "Hg2 mi
1:00 AM82 °FFog.5 mph89%29.80 "Hg2 mi
12:30 AM82 °FFog.3 mph94%29.80 "Hg2 mi
12:00 AM82 °FPassing clouds.3 mph89%29.80 "Hg2 mi
11:30 PM
Thu, Apr 28
84 °FPassing clouds.No wind84%29.80 "Hg2 mi
11:00 PM82 °FHaze.3 mph89%29.80 "Hg3 mi
10:30 PM82 °FHaze.3 mph89%29.80 "Hg3 mi
10:00 PM82 °FHaze.3 mph89%29.77 "Hg3 mi
9:30 PM84 °FPassing clouds.3 mph79%29.77 "Hg4 mi
9:00 PM82 °FPassing clouds.5 mph84%29.77 "Hg4 mi
8:30 PM84 °FPassing clouds.3 mph84%29.74 "Hg4 mi
8:00 PM84 °FPassing clouds.3 mph84%29.74 "Hg5 mi
7:00 PM86 °FPassing clouds.3 mph79%29.71 "Hg4 mi
6:00 PM88 °FScattered clouds.7 mph70%29.71 "Hg5 mi
5:30 PM90 °FScattered clouds.8 mph67%29.71 "Hg5 mi
5:00 PM90 °FScattered clouds.9 mph67%29.68 "Hg5 mi
4:00 PM91 °FScattered clouds.12 mph59%29.68 "Hg5 mi
3:00 PM91 °FScattered clouds.10 mph59%29.71 "Hg5 mi
2:30 PM93 °FScattered clouds.10 mph53%29.71 "Hg5 mi
2:00 PM93 °FPartly sunny.9 mph53%29.74 "Hg5 mi
12:30 PM91 °FPartly sunny.10 mph63%29.77 "Hg5 mi
12:00 PM91 °FScattered clouds.9 mph63%29.80 "Hg5 mi
Weather by CustomWeather, © 2016

See weather overviewHow to use our weather pages